Regional Weather Roundup
Issued by NWS Cleveland, OH

Home | Current Version | Previous Version | Graphics & Text | Print | Product List | Glossary On
Versions: 1 2 3 4 5 6 7 8 9 10 11 12 13 14 15 16 17 18 19 20 21 22 23 24 25 26 27 28 29 30 31 32 33 34 35 36 37 38 39 40 41 42 43 44 45 46 47 48 49 50
309
ASUS41 KCLE 230602
RWRCLE
OHIO REGIONAL WEATHER ROUNDUP
NATIONAL WEATHER SERVICE CLEVELAND, OH
100 AM EST THU NOV 23 2017

NOTE: "FAIR" INDICATES FEW OR NO CLOUDS BELOW 12,000 FEET WITH NO
SIGNIFICANT WEATHER AND/OR OBSTRUCTIONS TO VISIBILITY.

OHZ001>008-015>018-024>027-034-035-043-044-230700-
   NORTHWEST OHIO

CITY           SKY/WX    TMP DP  RH WIND       PRES   REMARKS
DEFIANCE       MOCLDY    28  22  78 S5        30.21S WCI  23
FINDLAY        PTCLDY    26  20  77 S6        30.20F WCI  19
TOLEDO EXPRESS PTCLDY    29  22  75 S6        30.20F WCI  23
TOLEDO EXEC    PTCLDY    28  21  75 S7        30.21F WCI  21
LIMA           CLOUDY    25  22  88 S6        30.20F WCI  18
$$

OHZ009>014-019>023-028>033-038-089-230700-
   NORTHEAST OHIO

CITY           SKY/WX    TMP DP  RH WIND       PRES   REMARKS
CLE-HOPKINS    CLOUDY    29  18  63 S7        30.23F WCI  22
CLE-LAKEFRONT  CLOUDY    32  18  56 S10       30.20F WCI  24
CUY CO. ARPT   NOT AVBL
LORAIN-ELYRIA  CLOUDY    25  15  66 S6        30.21F WCI  18
ASHTABULA      CLOUDY    31  24  75 SW5       30.19F WCI  26
AKRON-CANTON   MOCLDY    28  18  66 W3        30.20F
WOOSTER        CLOUDY    22  19  89 CALM      30.20F
MANSFIELD      CLOUDY    23  18  81 SE6       30.18F WCI  16
YOUNGSTOWN     CLOUDY    30  21  69 SW5       30.18F WCI  25
$$

OHZ042-051>053-060>062-070>072-077>081-230700-
  SOUTHWEST OHIO

CITY           SKY/WX    TMP DP  RH WIND       PRES   REMARKS
CINC-COVINGTON CLOUDY    28  23  81 CALM      30.21F
CINC-LUNKEN    CLOUDY    24  23  96 CALM      30.26F FOG
HAMILTON       CLOUDY    23  21  92 CALM      30.24F
DAYTON         CLOUDY    26  22  84 S5        30.22F WCI  20
WRIGHT-PAT AFB CLOUDY    25  21  83 CALM      30.21F
DAYTON GENERAL CLOUDY    27  20  75 SE3       30.20F
WILMINGTON     CLOUDY    22  21  96 SE3       30.20F
$$

OHZ036-037-039>041-045>050-054>059-063>069-073>076-082>088-230700-
  CENTRAL AND SOUTHEAST OHIO

CITY           SKY/WX    TMP DP  RH WIND       PRES   REMARKS
COLUMBUS       CLOUDY    26  21  81 CALM      30.21F
OSU AIRPORT    CLOUDY    26  21  81 S3        30.20F
BOLTON FIELD   CLOUDY    21  20  96 CALM      30.21F
RICKENBACK AFB CLOUDY    24  21  85 CALM      30.22F
NEWARK         CLOUDY    25  19  78 CALM      30.21F
MARION         CLOUDY    24  20  84 S5        30.21F WCI  18
LANCASTER      CLOUDY    20  18  92 CALM      30.22F
ZANESVILLE     CLOUDY    25  21  85 CALM      30.22F
NEW PHILLY     NOT AVBL
$$




USA.gov is the U.S. government's official web portal to all federal, state and local government web resources and services.